| time (UTC) | temp C | wind direction | speed KPH | gust KPH | rain 1hr cm | rain 24hr cm | rain mn cm | humidity % | barometer mb |
| 20260509093304 | 5 | 225 | 1.6 | 9.7 | 0.00 | 0.00 | 0.00 | 67 | 1028.0 |
| 20260509092754 | 5 | 248 | 1.6 | 17.7 | 0.00 | 0.00 | 0.00 | 67 | 1027.7 |
| 20260509091735 | 5 | 203 | 4.8 | 9.7 | 0.00 | 0.00 | 0.00 | 65 | 1027.3 |
| 20260509090713 | 5 | 293 | 0.0 | 3.2 | 0.00 | 0.00 | 0.00 | 70 | 1027.1 |
| 20260509090208 | 5 | 0 | 0.0 | 6.4 | 0.00 | 0.00 | 0.00 | 70 | 1027.0 |
| 20260509085653 | 5 | 248 | 0.0 | 6.4 | 0.00 | 0.00 | 0.00 | 67 | 1027.0 |
| 20260509085144 | 5 | 225 | 1.6 | 11.3 | 0.00 | 0.00 | 0.00 | 64 | 1026.7 |
| 20260509084636 | 5 | 293 | 4.8 | 11.3 | 0.00 | 0.00 | 0.00 | 67 | 1026.8 |
| 20260509084123 | 5 | 270 | 0.0 | 6.4 | 0.00 | 0.00 | 0.00 | 69 | 1026.7 |
| 20260509083612 | 5 | 338 | 0.0 | 12.9 | 0.00 | 0.00 | 0.00 | 74 | 1026.5 |
| 20260509083103 | 5 | 338 | 0.0 | 14.5 | 0.00 | 0.00 | 0.00 | 67 | 1026.4 |
| 20260509082553 | 5 | 135 | 3.2 | 14.5 | 0.00 | 0.00 | 0.00 | 68 | 1026.1 |
| 20260509081539 | 4 | 248 | 0.0 | 6.4 | 0.00 | 0.00 | 0.00 | 75 | 1026.3 |
| 20260509081021 | 3 | 270 | 0.0 | 11.3 | 0.00 | 0.00 | 0.00 | 78 | 1026.1 |
| 20260509080512 | 3 | 315 | 0.0 | 11.3 | 0.00 | 0.00 | 0.00 | 79 | 1026.1 |
| 20260509080003 | 3 | 338 | 6.4 | 11.3 | 0.00 | 0.00 | 0.00 | 82 | 1026.4 |
| 20260509075456 | 3 | 338 | 1.6 | 11.3 | 0.00 | 0.00 | 0.00 | 82 | 1026.3 |
| 20260509074942 | 3 | 225 | 4.8 | 11.3 | 0.00 | 0.00 | 0.00 | 85 | 1025.9 |
| 20260509074444 | 3 | 23 | 3.2 | 6.4 | 0.00 | 0.00 | 0.00 | 82 | 1026.3 |
| 20260509073921 | 3 | 23 | 3.2 | 6.4 | 0.00 | 0.00 | 0.00 | 83 | 1025.9 |
| 20260509073410 | 3 | 338 | 3.2 | 6.4 | 0.00 | 0.00 | 0.00 | 80 | 1025.9 |
| 20260509072352 | 4 | 225 | 0.0 | 6.4 | 0.00 | 0.00 | 0.00 | 73 | 1025.8 |
| 20260509071841 | 4 | 0 | 1.6 | 12.9 | 0.00 | 0.00 | 0.00 | 79 | 1025.7 |
| 20260509071331 | 3 | 113 | 4.8 | 12.9 | 0.00 | 0.00 | 0.00 | 71 | 1025.8 |
| 20260509070821 | 3 | 315 | 1.6 | 11.3 | 0.00 | 0.00 | 0.00 | 81 | 1025.6 |
| 20260509070314 | 2 | 23 | 4.8 | 12.9 | 0.00 | 0.00 | 0.00 | 78 | 1025.4 |
| 20260509065801 | 2 | 0 | 3.2 | 12.9 | 0.00 | 0.00 | 0.00 | 88 | 1025.4 |
| 20260509065250 | 2 | 0 | 6.4 | 9.7 | 0.00 | 0.00 | 0.00 | 88 | 1025.3 |
| 20260509064740 | 2 | 23 | 3.2 | 9.7 | 0.00 | 0.00 | 0.00 | 88 | 1025.3 |
| 20260509064230 | 2 | 45 | 3.2 | 9.7 | 0.00 | 0.00 | 0.00 | 88 | 1025.2 |
| 20260509063723 | 2 | 23 | 4.8 | 6.4 | 0.00 | 0.00 | 0.00 | 88 | 1025.2 |
| 20260509062659 | 2 | 0 | 3.2 | 9.7 | 0.00 | 0.00 | 0.00 | 88 | 1025.0 |
| 20260509061638 | 2 | 0 | 0.0 | 3.2 | 0.00 | 0.00 | 0.00 | 88 | 1025.1 |
| 20260509060619 | 3 | 45 | 0.0 | 6.4 | 0.00 | 0.00 | 0.00 | 86 | 1025.0 |
| 20260509055558 | 3 | 23 | 3.2 | 6.4 | 0.00 | 0.00 | 0.00 | 86 | 1025.0 |
| 20260509055048 | 4 | 0 | 3.2 | 6.4 | 0.00 | 0.00 | 0.00 | 83 | 1024.7 |
| 20260509054546 | 4 | 293 | 0.0 | 3.2 | 0.00 | 0.00 | 0.00 | 78 | 1024.9 |
| 20260509054028 | 5 | 248 | 0.0 | 6.4 | 0.00 | 0.00 | 0.00 | 77 | 1024.9 |
| 20260509053517 | 5 | 248 | 0.0 | 6.4 | 0.00 | 0.00 | 0.00 | 75 | 1024.5 |
| 20260509053020 | 5 | 23 | 0.0 | 9.7 | 0.00 | 0.00 | 0.00 | 77 | 1024.5 |
| 20260509051951 | 6 | 113 | 0.0 | 0.0 | 0.00 | 0.00 | 0.00 | 90 | 1024.0 |
| 20260509051716 | 6 | 45 | 1.6 | 0.0 | 0.00 | 0.00 | 0.00 | 92 | 1024.0 |
| 20260509050818 | 7 | 158 | 0.0 | 6.4 | 0.00 | 0.00 | 0.00 | 92 | 1024.0 |
| 20260509044229 | 6 | 293 | 0.0 | 3.2 | 0.00 | 0.00 | 0.00 | 92 | 1023.1 |
| 20260509043718 | 6 | 315 | 0.0 | 3.2 | 0.00 | 0.00 | 0.00 | 91 | 1023.0 |
| 20260509043210 | 7 | 293 | 0.0 | 0.0 | 0.00 | 0.00 | 0.00 | 91 | 1022.9 |
| 20260509042147 | 6 | 293 | 0.0 | 3.2 | 0.00 | 0.00 | 0.00 | 91 | 1022.9 |
| 20260509041637 | 6 | 293 | 0.0 | 3.2 | 0.00 | 0.00 | 0.00 | 90 | 1022.7 |
| 20260509041126 | 6 | 293 | 3.2 | 3.2 | 0.00 | 0.00 | 0.00 | 90 | 1022.1 |
| 20260509040620 | 6 | 315 | 1.6 | 6.4 | 0.00 | 0.00 | 0.00 | 91 | 1022.1 |
| 20260509040116 | 6 | 293 | 3.2 | 6.4 | 0.00 | 0.00 | 0.00 | 92 | 1022.1 |
| 20260509035558 | 6 | 338 | 0.0 | 3.2 | 0.00 | 0.00 | 0.00 | 93 | 1021.8 |
| 20260509035047 | 6 | 45 | 0.0 | 0.0 | 0.00 | 0.00 | 0.00 | 93 | 1021.8 |
| 20260509034541 | 6 | 45 | 0.0 | 0.0 | 0.00 | 0.00 | 0.00 | 93 | 1021.5 |
| 20260509033516 | 6 | 45 | 0.0 | 0.0 | 0.00 | 0.00 | 0.00 | 94 | 1021.4 |
| 20260509033018 | 6 | 45 | 0.0 | 0.0 | 0.00 | 0.00 | 0.00 | 93 | 1021.3 |
| 20260509032457 | 6 | 45 | 0.0 | 0.0 | 0.00 | 0.00 | 0.00 | 94 | 1021.0 |
| 20260509031946 | 6 | 45 | 0.0 | 0.0 | 0.00 | 0.00 | 0.00 | 94 | 1020.8 |
| 20260509030925 | 6 | 45 | 0.0 | 0.0 | 0.00 | 0.00 | 0.00 | 93 | 1020.7 |
| 20260509025906 | 6 | 113 | 0.0 | 3.2 | 0.00 | 0.00 | 0.00 | 93 | 1020.6 |
| 20260509025355 | 6 | 113 | 0.0 | 3.2 | 0.00 | 0.00 | 0.00 | 93 | 1020.4 |
| 20260509024900 | 6 | 113 | 0.0 | 3.2 | 0.00 | 0.00 | 0.00 | 93 | 1020.7 |
| 20260509024334 | 6 | 113 | 0.0 | 0.0 | 0.00 | 0.00 | 0.00 | 93 | 1020.3 |
| 20260509023314 | 7 | 113 | 0.0 | 3.2 | 0.00 | 0.00 | 0.00 | 93 | 1020.2 |
| 20260509022805 | 7 | 90 | 0.0 | 3.2 | 0.00 | 0.00 | 0.00 | 93 | 1020.1 |
| 20260509022257 | 6 | 68 | 0.0 | 3.2 | 0.00 | 0.00 | 0.00 | 93 | 1019.9 |
| 20260509021744 | 6 | 68 | 0.0 | 0.0 | 0.00 | 0.00 | 0.00 | 93 | 1019.5 |
| 20260509021234 | 6 | 23 | 0.0 | 3.2 | 0.00 | 0.00 | 0.00 | 93 | 1019.6 |
| 20260509020724 | 6 | 23 | 1.6 | 3.2 | 0.00 | 0.00 | 0.00 | 92 | 1019.3 |
| 20260509015153 | 6 | 23 | 0.0 | 3.2 | 0.00 | 0.00 | 0.00 | 92 | 1019.2 |
| 20260509014643 | 6 | 23 | 0.0 | 3.2 | 0.00 | 0.00 | 0.00 | 93 | 1019.0 |
| 20260509014133 | 6 | 23 | 0.0 | 3.2 | 0.00 | 0.00 | 0.00 | 93 | 1018.8 |
| 20260509012617 | 6 | 23 | 0.0 | 0.0 | 0.00 | 0.00 | 0.00 | 93 | 1018.8 |
| 20260509012052 | 6 | 23 | 0.0 | 3.2 | 0.00 | 0.00 | 0.00 | 92 | 1019.2 |
| 20260509011543 | 6 | 23 | 0.0 | 3.2 | 0.00 | 0.00 | 0.00 | 92 | 1018.8 |
| 20260509011032 | 6 | 45 | 0.0 | 0.0 | 0.00 | 0.00 | 0.00 | 92 | 1018.9 |
| 20260509010525 | 6 | 68 | 0.0 | 0.0 | 0.00 | 0.00 | 0.00 | 92 | 1019.0 |
| 20260509010014 | 6 | 23 | 0.0 | 0.0 | 0.00 | 0.00 | 0.00 | 92 | 1018.8 |
| 20260509003935 | 6 | 23 | 0.0 | 3.2 | 0.00 | 0.00 | 0.00 | 92 | 1018.3 |
| 20260509003421 | 6 | 0 | 0.0 | 3.2 | 0.00 | 0.00 | 0.00 | 92 | 1018.1 |
| 20260509002911 | 6 | 0 | 0.0 | 3.2 | 0.00 | 0.00 | 0.00 | 92 | 1018.5 |
| 20260509002402 | 6 | 0 | 0.0 | 3.2 | 0.00 | 0.00 | 0.00 | 92 | 1018.3 |
| 20260509001854 | 6 | 23 | 0.0 | 3.2 | 0.00 | 0.00 | 0.00 | 92 | 1018.0 |
| 20260509000831 | 6 | 23 | 1.6 | 3.2 | 0.00 | 0.00 | 0.00 | 92 | 1018.0 |
| 20260508235810 | 6 | 23 | 0.0 | 3.2 | 0.00 | 0.00 | 0.00 | 92 | 1017.9 |
| 20260508235305 | 5 | 23 | 0.0 | 3.2 | 0.00 | 0.00 | 0.00 | 92 | 1018.0 |
| 20260508234753 | 5 | 23 | 0.0 | 3.2 | 0.00 | 0.00 | 0.00 | 92 | 1017.8 |
| 20260508234240 | 5 | 0 | 0.0 | 3.2 | 0.00 | 0.00 | 0.00 | 92 | 1018.2 |
| 20260508233729 | 5 | 23 | 0.0 | 3.2 | 0.00 | 0.00 | 0.00 | 92 | 1018.0 |
| 20260508233219 | 5 | 45 | 0.0 | 3.2 | 0.00 | 0.00 | 0.00 | 92 | 1018.1 |
| 20260508232203 | 5 | 23 | 0.0 | 3.2 | 0.00 | 0.00 | 0.00 | 93 | 1018.0 |
| 20260508231649 | 5 | 45 | 0.0 | 3.2 | 0.00 | 0.00 | 0.00 | 92 | 1018.0 |
| 20260508231151 | 5 | 68 | 1.6 | 3.2 | 0.00 | 0.00 | 0.00 | 92 | 1017.6 |
| 20260508230642 | 5 | 23 | 0.0 | 3.2 | 0.00 | 0.00 | 0.00 | 92 | 1017.5 |
| 20260508225059 | 5 | 23 | 0.0 | 3.2 | 0.00 | 0.00 | 0.00 | 92 | 1017.5 |
| 20260508224548 | 5 | 45 | 0.0 | 3.2 | 0.00 | 0.00 | 0.00 | 91 | 1017.2 |
| 20260508223541 | 6 | 113 | 0.0 | 3.2 | 0.00 | 0.00 | 0.00 | 91 | 1017.1 |
| 20260508223021 | 6 | 113 | 0.0 | 3.2 | 0.00 | 0.00 | 0.00 | 91 | 1016.6 |
| 20260508222507 | 6 | 113 | 0.0 | 3.2 | 0.00 | 0.00 | 0.00 | 90 | 1016.5 |
| 20260508221957 | 6 | 113 | 0.0 | 0.0 | 0.00 | 0.00 | 0.00 | 89 | 1016.4 |
| 20260508221447 | 6 | 113 | 0.0 | 3.2 | 0.00 | 0.00 | 0.00 | 87 | 1016.5 |
| 20260508220937 | 6 | 113 | 0.0 | 3.2 | 0.00 | 0.00 | 0.00 | 86 | 1016.1 |
| 20260508220442 | 6 | 135 | 1.6 | 3.2 | 0.00 | 0.00 | 0.00 | 86 | 1016.5 |
| 20260508215407 | 6 | 158 | 0.0 | 3.2 | 0.00 | 0.00 | 0.00 | 86 | 1016.4 |
| 20260508214857 | 6 | 158 | 0.0 | 6.4 | 0.00 | 0.00 | 0.00 | 85 | 1016.7 |
| 20260508214347 | 7 | 135 | 3.2 | 6.4 | 0.00 | 0.00 | 0.00 | 84 | 1016.6 |
| 20260508213839 | 7 | 113 | 3.2 | 6.4 | 0.00 | 0.00 | 0.00 | 82 | 1016.7 |
| 20260508213326 | 6 | 0 | 1.6 | 6.4 | 0.00 | 0.00 | 0.00 | 82 | 1016.5 |
| 20260508212816 | 6 | 225 | 1.6 | 6.4 | 0.00 | 0.00 | 0.00 | 82 | 1016.4 |
| 20260508212307 | 6 | 225 | 0.0 | 3.2 | 0.00 | 0.00 | 0.00 | 83 | 1016.4 |
| 20260508211756 | 6 | 270 | 1.6 | 3.2 | 0.00 | 0.00 | 0.00 | 82 | 1016.5 |
| 20260508210735 | 7 | 293 | 1.6 | 6.4 | 0.00 | 0.00 | 0.00 | 81 | 1015.7 |
| 20260508210225 | 7 | 0 | 3.2 | 9.7 | 0.00 | 0.00 | 0.00 | 80 | 1016.0 |
| 20260508205715 | 7 | 270 | 6.4 | 9.7 | 0.00 | 0.00 | 0.00 | 79 | 1016.1 |
| 20260508205205 | 7 | 315 | 0.0 | 6.4 | 0.00 | 0.00 | 0.00 | 78 | 1016.0 |
| 20260508204658 | 7 | 293 | 1.6 | 11.3 | 0.00 | 0.00 | 0.00 | 76 | 1016.1 |
| 20260508203637 | 7 | 315 | 4.8 | 12.9 | 0.00 | 0.00 | 0.00 | 74 | 1016.4 |
| 20260508203125 | 7 | 293 | 4.8 | 12.9 | 0.00 | 0.00 | 0.00 | 77 | 1015.9 |
| 20260508202615 | 7 | 315 | 3.2 | 11.3 | 0.00 | 0.00 | 0.00 | 78 | 1016.4 |
| 20260508202106 | 8 | 248 | 1.6 | 11.3 | 0.00 | 0.00 | 0.00 | 77 | 1016.3 |
| 20260508201557 | 8 | 338 | 6.4 | 11.3 | 0.00 | 0.00 | 0.00 | 76 | 1016.1 |
| 20260508200023 | 9 | 315 | 3.2 | 11.3 | 0.00 | 0.00 | 0.00 | 72 | 1016.5 |
| 20260508195516 | 10 | 338 | 4.8 | 6.4 | 0.00 | 0.00 | 0.00 | 69 | 1016.5 |
| 20260508195005 | 9 | 315 | 3.2 | 11.3 | 0.00 | 0.00 | 0.00 | 71 | 1016.7 |
| 20260508194505 | 9 | 293 | 4.8 | 11.3 | 0.00 | 0.00 | 0.00 | 71 | 1016.7 |
| 20260508193943 | 9 | 338 | 3.2 | 12.9 | 0.00 | 0.00 | 0.00 | 67 | 1017.3 |
| 20260508193433 | 9 | 203 | 1.6 | 12.9 | 0.00 | 0.00 | 0.00 | 69 | 1016.8 |
| 20260508192925 | 10 | 68 | 3.2 | 14.5 | 0.00 | 0.00 | 0.00 | 69 | 1017.1 |
| 20260508192413 | 10 | 203 | 3.2 | 14.5 | 0.00 | 0.00 | 0.00 | 69 | 1016.8 |
| 20260508191902 | 11 | 68 | 1.6 | 14.5 | 0.00 | 0.00 | 0.00 | 65 | 1017.4 |
| 20260508191352 | 11 | 23 | 6.4 | 14.5 | 0.00 | 0.00 | 0.00 | 64 | 1017.0 |
| 20260508190841 | 10 | 90 | 3.2 | 14.5 | 0.00 | 0.00 | 0.00 | 68 | 1016.6 |
| 20260508190334 | 10 | 45 | 4.8 | 14.5 | 0.00 | 0.00 | 0.00 | 65 | 1017.0 |
| 20260508185822 | 11 | 90 | 3.2 | 17.7 | 0.00 | 0.00 | 0.00 | 64 | 1017.3 |
| 20260508185311 | 11 | 23 | 3.2 | 17.7 | 0.00 | 0.00 | 0.00 | 63 | 1017.2 |
| 20260508184802 | 11 | 23 | 4.8 | 17.7 | 0.00 | 0.00 | 0.00 | 63 | 1017.4 |
| 20260508183744 | 10 | 90 | 6.4 | 14.5 | 0.00 | 0.00 | 0.00 | 66 | 1017.5 |
| 20260508183231 | 11 | 113 | 6.4 | 14.5 | 0.00 | 0.00 | 0.00 | 62 | 1017.3 |
| 20260508182211 | 11 | 45 | 6.4 | 20.9 | 0.00 | 0.00 | 0.00 | 63 | 1016.8 |
| 20260508180133 | 11 | 315 | 6.4 | 9.7 | 0.00 | 0.00 | 0.00 | 64 | 1018.5 |
| 20260508174602 | 10 | 315 | 6.4 | 17.7 | 0.00 | 0.00 | 0.00 | 66 | 1018.5 |
| 20260508174049 | 10 | 23 | 3.2 | 12.9 | 0.00 | 0.00 | 0.00 | 67 | 1018.3 |
| 20260508173539 | 10 | 293 | 6.4 | 12.9 | 0.00 | 0.00 | 0.00 | 65 | 1018.7 |
| 20260508172013 | 10 | 270 | 4.8 | 14.5 | 0.00 | 0.00 | 0.00 | 69 | 1019.3 |
| 20260508171459 | 10 | 293 | 6.4 | 14.5 | 0.00 | 0.00 | 0.00 | 70 | 1019.9 |
| 20260508170441 | 10 | 293 | 6.4 | 17.7 | 0.00 | 0.00 | 0.00 | 69 | 1020.0 |
| 20260508165930 | 10 | 293 | 6.4 | 17.7 | 0.00 | 0.00 | 0.00 | 71 | 1020.1 |
| 20260508165423 | 10 | 315 | 8.0 | 14.5 | 0.00 | 0.00 | 0.00 | 69 | 1020.3 |